Regional Weather Roundup
Issued by NWS

Home | Current Version | Previous Version | Graphics & Text | Print | Product List | Glossary On
Versions: 1 2 3 4 5 6 7 8 9 10 11 12 13 14 15 16 17 18 19 20 21 22 23 24 25 26 27 28 29 30 31 32 33 34 35 36 37 38 39 40 41 42 43 44 45 46 47 48 49 50
000
ASUS43 KIND 272159
RWRIN

WEATHER ROUNDUP FOR INDIANA
NATIONAL WEATHER SERVICE INDIANAPOLIS IN
600 PM EDT THU AUG 27 2015

NOTE: "FAIR" INDICATES FEW OR NO CLOUDS BELOW 12,000 FEET WITH NO
SIGNIFICANT WEATHER AND/OR OBSTRUCTIONS TO VISIBILITY.

* - STATION DOES NOT REPORT WEATHER SUCH AS PRECIPITATION OR FOG.

+ - STATION NOT QUALITY CONTROLLED BY THE NATIONAL WEATHER SERVICE.
    USE DATA WITH CAUTION...ESPECIALLY DEWPOINT AND RELATIVE
    HUMIDITY OBSERVATIONS.

INZ001>003-010>013-019-020-272300-
NORTHWEST INDIANA

CITY           SKY/WX    TMP DP  RH WIND       PRES   REMARKS
GARY /AIRPORT/ PTSUNNY   72  55  56 NE6       30.15F
KNOX *+        FAIR      72  54  53 CALM      30.14F
MONTICELLO +   FAIR      74  59  59 CALM      30.13F
RENSSELAER +   FAIR      73  55  53 CALM      30.13F

$$

LMZ046-743>745-272300-
SOUTHERN LAKE MICHIGAN

STATION/POSITION TIME  TEMP    WIND        PRES    WAVE
                       AIR SEA DIR/SP/G            HT
                 (UTC) (F)     (DEG/KT/KT) (MB)    (FT)
BURNS HARBOR     2100   67      30/  5/  6 1021.7S
MICHIGAN CITY    2100   68     310/  5/  7   N/A
5NW MICH CITY    2100   67 72  340/  2/  4   N/A     1

$$

INZ004-005-014>016-021>024-272300-
NORTH CENTRAL INDIANA

CITY           SKY/WX    TMP DP  RH WIND       PRES   REMARKS
ELKHART        PTSUNNY   70  54  56 CALM      30.17S
GOSHEN         PTSUNNY   71  55  56 E3        30.16F
SOUTH BEND     CLOUDY    69  54  58 E3        30.16F
WARSAW +       PTSUNNY   70  55  60 N3        30.15F

$$

INZ006>009-017-018-025>027-272300-
NORTHEAST INDIANA

CITY           SKY/WX    TMP DP  RH WIND       PRES   REMARKS
ANGOLA *+      CLOUDY    70  61  73 CALM      30.17F
FORT WAYNE     FAIR      73  56  54 CALM      30.16F

$$

INZ028-029-035-036-043>045-051>053-272300-
WEST CENTRAL INDIANA

CITY           SKY/WX    TMP DP  RH WIND       PRES   REMARKS
CRAWFORDSVL +  FAIR      74  52  44 CALM      30.12F
GREENCASTLE +  CLOUDY    73  54  49 E3        30.12F
LAFAYETTE      PTSUNNY   77  56  48 NE5       30.11F
TERRE HAUTE    FAIR      79  56  45 CALM      30.11F

$$

INZ030>032-037>040-046>048-054>057-064-065-272300-
CENTRAL INDIANA

CITY           SKY/WX    TMP DP  RH WIND       PRES   REMARKS
COLUMBUS       MOSUNNY   77  50  38 CALM      30.13S
FRANKFORT +    FAIR      76  60  59 NE5       30.14F
INDIANAPOLIS   FAIR      78  56  46 VRB3      30.11F
-EAGLE CREEK   FAIR      76  55  48 W3        30.12S
KOKOMO *+      FAIR      73  55  53 CALM      30.14S
MT COMFORT *+  FAIR      75  54  46 E3        30.14S
SHELBYVILLE    FAIR      79  56  45 CALM      30.12F

$$

INZ033-034-041-042-049-050-058-059-272300-
EAST CENTRAL INDIANA

CITY           SKY/WX    TMP DP  RH WIND       PRES   REMARKS
MUNCIE         FAIR      73  57  57 N5        30.15S

$$

INZ060-061-067>069-081>083-085>088-272300-
SOUTHWEST INDIANA

CITY           SKY/WX    TMP DP  RH WIND       PRES   REMARKS
EVANSVILLE     PTSUNNY   81  57  43 E6        30.11S
HUNTINGBURG *+ PTSUNNY   79  57  47 E3        30.11S

$$

INZ062-063-066-070>080-084-089>092-272300-
SOUTH CENTRAL AND SOUTHEAST INDIANA

CITY           SKY/WX    TMP DP  RH WIND       PRES   REMARKS
BLOOMINGTON    FAIR      78  57  48 E6        30.12F
MADISON *+     FAIR      77  54  44 CALM      30.15S
SEYMOUR +      FAIR      79  55  44 CALM      30.12S

$$



USA.gov is the U.S. government's official web portal to all federal, state and local government web resources and services.